Lapse_Rate
1.3 1.3 1.3 1.2 1.2 1.1 1.0 0.8 0.9 1.0 1.0 0.9 1.0 1.1 1.2 1.0 2.4 6.5 8.2 6.5 6.7 6.0 5.6 7.9 8.8 8.5 8.2 7.8 8.0 7.8 6.5 6.5 6.5 6.5 6.5 6.3 6.4 6.7 7.0 6.5 6.4 6.9 6.8 7.0 7.1
1.2 1.2 1.1 0.9 0.9 0.9 0.7 0.4 0.5 0.7 0.7 0.7 0.7 0.9 1.1 0.7 5.1 8.3 6.0 6.1 5.9 5.8 7.0 8.3 7.9 7.9 6.9 7.3 7.0 6.3 6.5 6.5 6.4 6.4 6.5 6.4 6.2 6.3 6.3 6.2 6.2 6.4 6.8 7.0 7.0
1.1 0.9 0.7 0.5 0.4 0.5 0.3 0.0 0.0 0.3 0.4 0.5 0.6 0.7 0.7 0.9 6.5 7.8 5.7 5.6 5.5 5.7 7.6 8.6 8.3 7.5 6.6 6.9 6.8 6.3 6.5 6.5 6.4 6.7 6.6 6.4 6.3 6.6 6.0 6.5 6.0 6.0 6.6 6.8 6.8
0.8 0.6 0.4 0.2 0.0 0.1 0.0 -0.2 -0.2 -0.0 0.1 0.3 0.4 0.6 0.7 4.3 6.5 6.4 5.2 5.1 5.3 5.7 7.6 8.3 7.7 6.5 6.3 6.5 6.6 6.5 6.3 6.6 6.3 6.5 6.3 6.3 6.4 6.1 5.9 6.1 6.6 6.6 6.6 6.5 6.7
0.7 0.5 0.2 0.0 -0.1 -0.3 -0.5 -0.5 -0.3 -0.1 -0.3 -0.2 0.1 0.6 2.9 6.6 7.5 5.4 5.1 5.5 6.4 7.0 8.4 8.0 7.0 6.6 6.5 6.2 6.2 6.5 6.4 6.8 6.5 6.6 6.4 6.6 6.1 6.3 6.4 7.2 6.9 7.2 7.2 6.4 6.3
0.4 0.1 -0.2 -0.2 -0.3 -0.6 -0.8 -0.7 -0.6 -0.7 -1.0 -0.8 -0.1 0.3 4.3 6.7 8.6 7.4 7.0 7.2 8.2 7.5 8.2 8.2 7.4 7.6 6.7 6.4 6.4 6.2 6.3 6.4 6.8 6.5 6.5 6.5 6.5 6.2 6.9 7.4 7.5 7.3 6.4 5.9 6.0
0.2 -0.1 -0.4 -0.5 -0.5 -0.7 -0.8 -0.8 -1.0 -1.0 -0.8 -0.3 0.2 3.0 6.1 7.3 8.2 7.9 7.4 6.8 7.1 7.2 7.1 8.1 7.1 7.1 6.7 6.4 6.7 6.4 6.5 6.5 6.3 6.3 6.5 6.3 6.5 6.5 7.3 7.8 7.7 8.0 8.0 6.5 3.8
0.1 -0.2 -0.4 -0.4 -0.4 -0.6 -0.7 -1.0 -0.6 -0.4 -0.4 -0.1 0.7 4.9 7.0 7.1 7.1 8.3 8.7 8.7 8.0 7.7 7.2 6.9 6.8 6.5 7.2 6.6 6.5 6.5 6.5 6.5 6.5 6.2 6.1 6.3 6.5 6.5 7.4 7.2 7.3 7.7 7.9 6.6 6.5
-0.1 -0.4 -0.3 -0.5 -0.7 -0.7 -0.5 -0.5 0.3 0.9 0.4 0.8 3.4 5.7 6.9 5.9 7.9 7.7 7.4 7.1 7.5 8.0 7.0 7.4 6.6 6.9 6.1 6.5 6.5 6.5 6.5 6.5 6.5 6.2 6.5 6.5 6.5 6.6 7.5 7.4 7.2 7.5 7.8 7.5 6.8
-0.2 -0.4 -0.6 -0.6 -0.9 0.2 0.7 -0.1 1.1 0.6 2.1 4.9 6.7 6.6 7.5 7.5 6.8 6.3 7.8 6.9 7.7 8.0 7.1 6.4 6.4 6.5 6.5 6.5 6.5 6.5 6.5 6.5 6.5 6.5 6.5 6.5 6.5 6.5 7.1 7.1 7.0 7.2 7.4 7.4 7.0
-0.3 -0.3 -0.5 -0.8 -0.7 2.3 1.5 2.2 4.7 5.5 6.1 5.9 7.1 7.3 7.6 7.1 6.1 7.4 7.1 7.4 7.6 7.1 6.5 6.6 6.5 6.5 6.5 6.5 6.5 6.5 6.5 6.5 6.5 6.5 6.5 6.5 6.5 6.5 6.8 7.0 6.9 6.9 6.7 7.1 5.9
-0.4 -0.5 -0.2 -0.7 -0.4 3.3 4.0 4.5 4.0 3.6 6.0 6.8 7.0 6.8 6.8 6.2 6.8 7.4 7.1 7.1 6.7 6.5 6.5 6.5 6.5 6.5 6.5 6.5 6.5 6.5 6.5 6.5 6.5 6.5 6.5 6.5 6.5 6.5 6.7 6.8 7.1 6.5 6.7 6.9 6.3
0.2 -0.0 -0.2 -0.1 1.0 2.8 2.7 3.3 3.9 5.5 6.7 7.0 7.0 7.6 6.9 6.2 7.1 6.9 6.3 7.0 6.5 6.5 6.5 6.5 6.5 6.4 6.5 6.5 6.5 6.5 6.5 6.5 6.5 6.5 6.5 6.5 6.5 6.5 6.5 6.8 7.1 7.5 7.3 7.2 6.9
0.6 0.5 -0.1 0.5 3.4 4.7 3.8 3.7 3.8 5.2 6.5 6.5 6.7 6.5 7.2 7.3 6.7 6.8 6.8 6.5 6.5 6.5 6.5 6.5 6.5 6.5 6.5 6.5 6.5 6.5 6.5 6.5 6.5 6.5 6.5 6.5 6.5 6.5 6.5 6.5 6.6 6.9 7.0 7.2 7.4
0.6 0.4 1.0 0.5 2.1 5.1 3.2 3.5 3.9 4.3 6.5 6.5 6.7 6.6 6.9 6.8 6.5 6.4 6.1 6.8 6.5 6.5 6.5 6.5 6.5 6.5 6.5 6.5 6.5 6.5 6.5 6.5 6.5 6.5 6.5 6.5 6.5 6.5 6.5 6.5 6.5 6.6 7.1 7.2 7.5
0.9 0.5 1.2 3.4 3.1 3.2 2.7 3.0 3.7 6.5 6.5 6.5 6.7 6.5 6.5 6.8 6.8 7.1 6.8 6.3 6.9 6.5 6.5 6.5 6.7 6.5 6.5 6.5 6.5 6.5 6.5 6.5 6.5 6.5 6.5 6.5 6.5 6.5 6.5 6.5 6.5 6.6 7.0 7.4 7.7
1.3 0.6 0.9 2.5 3.8 2.3 2.0 3.3 6.5 6.5 6.5 6.5 6.5 6.5 6.5 6.5 6.5 6.5 6.5 6.5 6.5 6.5 6.5 6.5 6.5 6.5 6.5 6.5 6.5 6.5 6.5 6.5 6.5 6.5 6.5 6.5 6.5 6.5 6.5 6.5 6.4 6.5 6.6 7.0 7.4
1.9 0.6 2.7 3.4 2.5 1.9 2.1 6.4 6.5 6.5 6.5 6.5 6.5 6.5 6.5 6.5 6.5 6.5 6.5 6.5 6.5 6.5 6.5 6.5 6.5 6.5 6.5 6.5 6.5 6.5 6.5 6.5 6.5 6.5 6.5 6.5 6.5 6.5 6.5 6.2 6.4 6.8 6.6 6.8 7.0
2.9 4.0 3.4 3.3 2.4 2.2 4.5 6.5 6.5 6.5 6.5 6.5 6.5 6.5 6.5 6.5 6.5 6.5 6.5 6.5 6.5 6.5 6.5 6.5 6.5 6.5 6.5 6.5 6.5 6.5 6.5 6.5 6.5 6.5 6.5 6.5 6.5 6.5 6.5 6.5 6.3 6.4 6.6 6.4 6.6
2.7 4.6 4.9 3.0 2.5 2.8 6.2 6.5 6.5 6.6 6.6 6.5 6.5 6.5 6.5 6.5 6.5 6.5 6.5 6.5 6.5 6.5 6.5 6.5 6.5 6.5 6.5 6.6 6.4 6.5 6.5 6.5 6.5 6.5 6.5 6.5 6.5 6.5 6.5 6.5 6.5 6.4 6.1 6.4 6.7
3.9 5.0 3.5 3.4 2.6 4.8 6.5 6.5 6.5 6.9 6.9 6.5 6.5 6.5 6.5 6.5 6.5 6.5 6.5 6.5 6.5 6.5 6.6 6.5 6.5 6.5 6.5 6.5 6.5 6.5 6.5 6.5 6.5 6.5 6.5 6.5 6.5 6.5 6.5 6.5 6.5 6.1 6.5 6.5 6.7
5.1 6.4 3.6 3.3 6.1 5.4 6.5 6.5 4.5 6.7 7.0 6.6 6.6 6.5 6.5 6.5 6.5 6.5 6.5 6.5 6.7 6.7 6.5 6.5 6.5 6.5 6.5 6.5 6.5 6.5 6.5 6.5 6.5 6.5 6.5 6.5 6.5 6.5 6.5 6.2 6.1 6.0 6.6 6.5 6.6
5.6 5.3 4.1 4.2 6.5 6.5 6.5 6.5 6.7 6.5 6.5 6.5 6.5 6.5 6.5 6.5 6.5 6.5 6.5 6.6 6.8 6.5 6.5 6.5 6.5 6.5 6.5 6.5 6.5 6.5 6.5 6.5 6.5 6.5 6.5 6.5 6.5 6.4 5.5 5.8 6.1 5.9 6.1 6.3 6.9
5.4 6.5 5.5 5.1 5.0 6.5 6.5 6.5 6.5 6.3 6.6 6.7 6.5 6.6 6.5 6.5 6.5 6.5 6.5 6.5 6.4 6.7 5.9 6.3 6.5 6.5 6.5 6.5 6.5 6.5 6.5 6.5 6.5 6.5 6.5 6.5 6.5 6.5 6.5 6.5 5.9 6.0 6.2 6.2 6.5
5.0 6.2 5.7 6.5 6.4 6.3 6.4 6.5 6.5 6.5 6.5 6.8 6.5 6.5 6.5 6.5 6.5 6.5 6.5 6.5 6.3 6.2 6.4 6.5 6.5 6.5 6.5 6.5 6.5 6.5 6.5 6.5 6.5 6.5 6.5 6.5 6.5 6.5 6.5 6.5 5.9 6.1 6.8 6.7 6.8
4.7 5.3 5.6 6.3 6.1 6.6 6.4 6.5 6.5 6.5 6.5 6.5 6.5 6.5 6.5 6.5 6.5 6.5 6.5 6.5 6.5 6.3 6.5 6.4 6.5 6.5 6.5 6.5 6.5 6.5 6.5 6.5 6.5 6.5 6.5 6.5 6.5 6.4 5.8 5.9 6.3 6.2 6.9 6.8 7.0
4.5 4.4 5.8 5.9 6.5 6.5 6.5 6.5 6.5 6.5 6.6 6.5 6.5 6.5 6.5 6.4 5.8 6.0 6.1 5.6 6.2 6.5 6.5 6.5 6.5 6.5 6.5 6.5 6.5 6.5 6.5 6.5 6.5 6.5 6.5 6.5 6.5 6.2 6.4 6.6 6.3 6.3 6.8 6.9 7.1
Wind_Speed
14 14 14 14 14 14 14 15 14 13 13 13 14 15 16 18 18 4 3 2 4 9 13 9 6 8 6 1 2 4 3 4 7 8 10 11 10 9 10 9 10 7 7 8 15
14 15 16 17 17 16 16 16 15 15 13 13 13 13 15 17 5 6 4 4 3 6 9 9 10 9 2 3 2 2 4 8 9 8 9 10 11 11 11 11 11 12 10 9 10
16 17 18 18 18 17 17 17 18 15 14 12 12 12 13 13 4 4 5 2 3 6 7 7 8 7 5 3 2 5 4 9 8 8 8 12 12 10 11 11 11 12 14 9 8
17 18 19 20 19 19 18 18 17 16 13 13 12 11 12 4 3 4 5 2 4 6 6 7 8 6 6 7 7 3 8 5 7 8 8 10 10 7 8 10 9 11 9 8 8
18 19 20 20 21 22 21 19 19 17 13 12 9 8 6 4 2 5 3 1 5 4 5 6 7 7 7 8 9 3 8 9 8 4 7 7 11 9 14 21 11 9 8 9 9
20 20 21 21 21 22 21 20 20 17 12 8 6 3 3 2 3 6 2 3 3 4 6 4 5 6 7 9 6 7 9 11 2 7 6 7 4 9 18 20 22 19 13 12 10
18 20 22 22 23 22 20 20 17 11 8 4 5 3 3 2 4 5 1 4 3 4 5 6 5 4 7 7 3 7 7 6 7 7 2 7 12 17 19 20 23 25 22 17 11
20 22 23 24 26 23 21 17 8 5 2 4 4 4 2 1 5 2 5 1 3 2 3 3 3 5 3 8 5 4 1 6 10 8 7 3 12 17 16 19 22 24 21 20 8
23 24 25 25 26 26 20 8 4 2 2 5 4 3 4 2 1 4 4 5 3 2 1 2 3 3 7 5 5 7 6 8 5 7 10 11 6 13 15 20 22 21 20 16 15
24 26 27 28 27 27 25 4 2 1 5 5 3 2 1 3 3 3 0 3 3 1 3 4 3 3 5 6 4 7 6 5 6 4 11 8 7 9 11 20 17 20 20 17 15
23 26 27 27 26 25 12 1 3 1 6 3 4 3 2 6 3 3 3 4 3 4 4 2 2 5 8 5 7 10 6 4 4 4 5 6 9 10 11 17 19 20 19 19 14
24 26 29 26 23 19 8 5 3 1 5 3 3 3 1 1 2 3 6 3 3 5 4 2 4 5 7 8 8 4 5 6 4 2 4 7 11 13 15 15 15 16 16 19 25
23 26 30 27 17 4 7 5 3 3 3 2 2 3 3 4 3 4 7 3 3 5 5 3 3 6 9 5 11 6 4 3 4 6 8 7 5 6 11 14 12 18 20 27 26
23 25 29 36 2 1 3 5 3 2 2 3 2 2 2 4 1 2 4 1 3 4 6 2 3 6 9 6 8 6 6 6 6 6 2 4 2 8 11 15 17 19 21 20 21
21 24 27 12 5 3 5 8 3 2 3 3 2 1 2 2 5 2 1 3 5 6 3 2 4 4 6 4 5 5 6 6 6 7 6 6 3 5 12 12 16 17 19 19 21
20 22 21 3 3 3 7 6 2 1 2 2 2 2 4 3 2 4 4 3 1 3 6 2 2 1 3 9 5 9 5 8 7 3 2 2 2 5 5 6 10 13 15 16 16
22 21 10 7 4 11 8 3 3 4 2 2 3 5 5 2 1 3 3 4 4 5 5 4 3 3 3 7 2 9 6 3 3 1 3 4 3 4 6 6 8 9 11 12 13
24 22 3 4 8 9 2 2 4 2 5 1 3 8 3 5 2 3 4 2 5 5 5 3 4 2 5 3 3 5 1 2 4 3 4 6 4 3 8 7 7 8 9 9 12
24 2 2 3 7 5 2 2 2 4 2 7 8 3 4 4 2 3 3 2 4 6 3 4 4 3 3 2 3 6 4 1 4 5 3 4 5 4 7 7 7 8 9 9 10
4 3 1 6 6 2 2 2 2 2 2 2 4 2 5 7 6 2 1 2 4 3 3 1 5 2 3 1 4 2 2 2 2 4 4 3 4 4 7 6 7 8 9 9 8
2 4 1 5 2 1 2 1 1 4 0 2 3 5 4 6 3 4 2 2 1 4 2 1 4 4 1 4 1 1 1 2 1 1 2 4 1 4 7 6 7 7 7 7 7
1 3 2 4 2 1 3 2 2 1 2 3 2 4 4 5 4 4 3 3 3 1 2 1 2 3 4 3 3 2 3 2 1 2 3 2 3 7 7 6 7 7 6 6 7
1 3 1 2 2 2 2 1 2 3 3 3 3 4 3 3 4 4 2 2 1 3 1 2 2 4 1 2 1 3 4 4 3 3 5 2 3 7 8 8 8 7 7 7 9
0 2 2 1 2 1 3 4 2 0 3 3 3 2 3 4 6 4 2 3 3 2 3 2 4 6 5 6 1 4 3 5 5 3 4 6 1 7 7 7 7 7 6 7 7
1 3 1 2 2 3 3 2 3 3 3 2 4 7 5 4 2 5 6 4 5 4 1 1 5 7 8 9 7 9 12 10 9 9 6 2 4 6 6 7 7 7 6 6 7
3 2 1 2 1 0 4 4 5 3 2 5 6 6 6 7 6 3 2 4 5 4 4 4 4 3 5 11 12 12 14 14 14 13 10 10 7 9 7 7 6 7 6 6 7
1 0 2 3 2 1 4 5 4 1 7 6 4 6 7 6 4 5 3 6 4 3 6 4 3 3 4 1 6 9 12 5 5 4 2 4 3 5 6 6 5 6 6 6 6
Wind_Direction
6 0 354 346 346 342 337 332 331 329 329 328 329 331 335 334 319 246 14 47 9 343 315 295 13 0 266 316 335 318 289 335 17 356 333 328 337 330 321 308 298 280 268 282 303
3 356 351 344 344 340 333 325 323 324 323 324 324 326 331 334 285 285 117 74 351 332 331 352 354 328 326 352 181 333 331 4 359 342 333 341 324 319 309 314 304 294 280 268 258
1 354 349 346 341 336 330 323 319 318 315 315 317 320 325 326 270 84 115 92 315 308 302 307 288 288 292 216 28 5 290 312 324 337 335 314 305 308 316 301 300 306 307 277 273
359 352 346 342 336 331 329 321 314 310 307 308 309 312 319 266 12 84 121 122 326 301 293 302 317 357 289 9 346 279 271 305 340 325 324 304 294 312 309 309 316 309 295 292 283
356 352 346 341 336 331 329 321 312 309 307 301 301 307 299 232 35 130 146 231 290 287 302 343 319 355 356 334 329 350 344 322 296 351 297 331 341 295 360 342 327 310 297 294 292
353 347 341 338 334 331 329 321 315 312 303 290 270 280 249 273 102 93 2 271 306 296 319 335 353 330 277 309 298 336 303 284 15 22 355 2 39 44 357 337 342 354 321 264 231
348 343 339 336 332 333 330 326 322 317 304 244 209 228 257 16 53 8 357 44 345 331 319 30 350 314 325 291 352 274 294 302 90 27 10 312 61 30 6 1 360 353 353 351 15
348 344 339 335 332 333 333 333 343 352 56 149 186 239 357 38 6 268 341 182 145 44 328 351 313 277 238 282 241 224 166 39 62 18 326 266 36 23 14 24 359 355 351 359 352
347 343 340 337 334 330 334 341 347 17 124 155 206 254 96 198 305 350 21 338 331 171 295 282 281 289 303 325 353 23 337 346 55 9 53 56 356 40 22 31 8 354 344 342 336
345 341 339 339 337 330 329 253 229 252 222 226 265 263 103 15 4 323 209 302 298 280 230 237 234 281 5 9 359 321 331 324 56 324 76 86 80 59 37 32 357 351 344 345 337
344 342 339 340 338 345 339 195 331 166 7 23 335 294 54 339 135 192 22 295 234 216 342 119 14 23 345 344 296 282 299 296 108 282 86 108 85 63 43 26 360 345 343 349 340
343 340 339 340 339 358 347 60 64 243 320 139 276 233 239 357 264 104 320 278 282 301 316 207 69 4 301 285 326 313 333 20 164 258 321 111 106 80 60 34 2 341 349 18 28
342 342 338 337 333 1 73 53 324 268 253 132 36 346 10 320 1 8 358 331 305 303 360 322 30 323 309 17 350 341 36 342 285 312 265 251 100 89 70 59 16 15 15 31 26
344 342 340 335 27 301 63 353 303 284 218 38 97 84 284 322 248 6 5 328 243 333 335 38 357 346 330 10 3 309 20 296 281 314 306 96 238 68 31 37 31 26 20 26 31
343 340 339 355 296 19 337 329 310 244 93 353 62 180 187 317 309 164 333 275 347 329 313 287 3 349 342 359 332 289 312 282 294 290 308 11 23 353 42 19 24 27 32 28 28
337 338 341 24 269 23 329 307 249 25 317 29 267 335 353 148 117 298 219 229 288 282 224 185 145 265 311 295 248 280 287 246 238 235 357 36 88 8 28 4 29 31 31 32 37
328 331 325 300 326 336 319 247 8 76 153 30 321 345 333 340 243 31 331 29 20 5 344 327 155 119 294 329 313 357 1 323 341 28 222 186 39 97 81 58 50 47 36 31 34
324 322 287 292 327 328 288 280 31 83 43 90 270 299 285 4 152 300 282 195 71 350 304 355 331 28 354 41 308 307 350 106 301 356 295 186 118 190 119 110 88 68 59 34 32
323 249 241 67 338 312 310 352 1 26 1 337 292 257 172 183 222 317 138 58 58 17 39 341 298 151 65 341 10 320 38 22 292 262 294 144 79 113 126 96 66 54 52 43 32
323 295 308 341 344 291 307 269 64 46 327 257 294 11 332 358 336 275 190 62 122 27 358 29 308 360 133 193 237 298 312 328 288 323 309 270 138 147 134 107 81 50 41 36 24
296 317 89 342 315 260 250 328 25 114 283 254 314 289 291 329 328 288 342 96 56 138 304 353 182 278 8 198 33 237 247 264 191 209 290 319 18 90 107 88 99 82 77 53 39
319 283 352 318 333 162 298 17 348 256 165 240 248 274 272 311 280 277 310 94 79 19 297 96 264 271 265 46 15 347 325 314 281 357 287 170 276 98 104 93 74 69 56 56 43
228 274 336 328 264 216 116 111 284 231 231 209 256 225 25 288 294 249 354 101 114 249 347 98 263 314 173 49 42 283 234 226 329 39 241 290 245 135 133 105 88 68 39 38 30
102 286 280 5 143 151 296 287 233 133 290 291 291 10 259 254 233 262 275 159 136 333 43 26 254 214 232 271 348 255 228 218 219 209 269 253 295 174 150 129 92 76 51 52 48
132 249 206 247 201 213 84 16 228 240 210 244 250 230 228 265 255 250 237 209 180 155 163 255 261 252 264 282 289 268 267 252 217 212 228 221 3 163 120 99 93 83 50 49 42
161 212 326 299 166 195 161 221 221 265 172 236 234 297 236 239 238 307 233 184 226 165 183 185 271 277 273 262 258 264 261 248 248 247 252 257 262 98 103 96 80 77 45 41 32
169 300 98 159 173 190 223 219 231 289 230 256 342 302 279 268 323 325 284 297 269 205 193 185 231 297 262 266 295 269 268 248 208 81 93 231 83 128 119 83 72 65 44 25 25